User: anonymous   Login
Location: Asheville, NC
(35.6000°N, 82.5500°W)
Time: 06:23:49
(UTC-05:00)
Language:

HO-68 - Orbit

View from above orbital plane
View from above orbital plane
View from above satellite
View from above satellite

Ground track
Ground track

The orbit data is extracted from the following two-line orbital elements,

1 36122U 09072B   18019.87874626 -.00000053 +00000-0 -27423-4 0  9991
2 36122 100.0848 041.4001 0008162 095.0491 265.1554 13.16343032389039
Epoch (UTC): 19 January 2018 21:05:23
Eccentricity: 0.0008162
inclination: 100.0848°
perigee height: 1192 km
apogee height: 1205 km
right ascension of ascending node: 41.4001°
argument of perigee: 95.0491°
revolutions per day: 13.16343032
mean anomaly at epoch: 265.1554°
orbit number at epoch: 38903

The dashed part of the orbit path shows where the satellite is in the earth's shadow,  

DLR